Cloud_Cover
100 100 76 100 39 40 100 100 100 100 100 35 88 100 100 100 100 100 14 92 100 100 6 10 11 28 4 22 100 89 18 80 62 100 81 27 5 3 67 5 3 5 5 2
100 100 100 100 40 69 92 100 100 100 100 72 22 100 100 100 100 100 100 79 100 60 100 55 1 93 12 4 89 6 41 100 100 80 87 4 6 2 0 5 7 5 5 0
100 100 100 100 86 91 100 100 100 100 100 61 51 100 100 100 100 100 100 100 100 100 100 67 16 100 10 5 5 10 53 100 100 32 10 0 89 8 5 5 5 0 3 0
100 100 100 100 89 88 100 100 96 96 100 96 100 100 100 100 100 100 100 100 100 100 97 53 100 100 4 44 16 5 50 100 92 5 5 6 19 37 31 36 88 48 4 0
96 100 100 100 96 100 100 100 89 14 100 100 100 100 100 100 100 100 100 100 100 100 100 86 11 97 4 3 46 98 100 86 5 55 5 41 37 5 0 5 5 5 0 2
14 98 100 100 97 67 100 100 82 93 100 100 100 100 100 100 100 100 100 100 100 100 98 97 5 5 3 0 14 100 100 99 5 47 5 5 21 0 5 5 5 1 0 0
65 100 100 100 61 10 61 99 100 100 71 100 100 100 100 100 100 100 100 100 100 100 100 100 83 5 20 14 71 15 100 100 42 8 5 87 3 5 5 5 5 5 4 4
53 100 100 100 49 23 100 100 100 86 100 69 100 100 100 100 100 100 100 100 100 100 100 100 100 99 89 11 99 51 89 100 7 46 5 54 5 7 5 5 5 5 5 4
100 100 100 98 79 57 100 100 100 100 31 15 100 100 100 100 100 100 100 100 100 100 100 100 80 16 6 5 5 95 38 100 20 61 40 69 7 29 5 5 83 5 5 5
100 100 100 74 40 100 100 100 100 100 99 94 84 100 100 100 100 100 100 100 100 100 100 100 65 23 70 0 61 50 14 99 47 15 81 62 25 22 5 5 5 5 5 5
100 100 91 30 86 100 100 100 100 100 100 100 100 100 100 100 100 100 100 100 100 100 100 100 100 90 4 0 98 64 36 73 76 78 67 95 5 89 6 5 5 5 5 5
90 17 80 37 54 100 86 100 100 100 100 82 100 100 100 100 100 100 100 100 100 100 100 99 86 100 96 7 90 100 83 100 59 74 31 45 70 79 61 5 5 25 5 5
5 22 39 0 2 98 100 100 100 100 100 100 100 100 100 100 89 79 100 97 49 100 86 91 98 100 100 96 100 100 100 100 99 16 5 28 88 97 5 5 5 5 5 6
10 41 0 0 84 100 100 100 100 100 100 100 96 87 100 81 96 69 85 93 100 100 100 99 97 88 66 100 100 66 100 100 36 36 5 5 29 50 29 8 5 23 54 40
38 75 0 8 90 100 99 100 100 100 100 100 100 93 100 42 88 8 14 71 100 100 100 100 78 100 100 100 100 77 83 100 86 6 33 5 5 27 84 68 40 43 33 90
53 40 5 100 97 100 100 100 100 100 100 100 100 100 100 87 98 60 5 100 100 100 100 86 78 99 100 100 100 83 100 100 61 44 5 24 51 6 8 83 100 100 100 100
50 13 62 100 100 73 100 100 100 100 100 100 100 100 75 45 74 99 82 44 100 100 100 100 100 100 100 100 100 100 100 100 67 16 44 85 98 42 46 55 36 45 97 98
100 100 100 100 100 100 100 100 100 100 100 100 100 100 91 79 89 94 100 44 99 100 100 100 100 100 100 100 100 100 100 100 95 98 100 100 100 100 99 95 100 100 100 100
100 100 100 100 100 100 100 100 100 56 100 100 100 100 100 99 92 76 100 100 100 100 100 100 100 100 100 100 100 100 100 100 100 100 100 100 99 100 100 100 100 100 100 96
100 100 100 100 100 100 100 100 97 100 100 100 100 100 100 100 91 100 100 100 100 100 100 100 100 100 100 100 100 100 100 100 100 100 100 100 100 100 100 100 100 100 96 93
100 100 100 100 100 100 100 100 100 99 100 100 100 100 100 95 98 100 100 100 100 100 100 100 100 100 100 100 100 100 100 100 100 100 100 100 100 100 100 100 100 100 100 100
100 97 100 100 100 100 100 100 98 97 94 87 100 100 100 100 100 100 100 100 100 85 86 100 94 99 100 100 100 100 100 100 100 100 100 100 100 100 100 100 100 100 100 100
100 100 100 100 100 100 99 99 90 91 100 100 100 100 100 100 100 100 100 96 100 60 100 96 100 100 100 100 100 100 100 100 100 100 100 100 100 100 100 100 100 100 100 100
100 100 100 100 100 100 100 100 100 100 100 100 100 100 100 100 100 100 100 100 100 100 100 100 100 100 100 100 100 100 100 100 100 100 100 100 100 100 100 100 100 100 100 100
100 100 100 100 100 100 100 100 100 100 100 100 100 100 95 100 100 100 100 100 100 100 100 100 100 100 100 100 100 100 100 100 100 100 100 100 100 100 100 100 100 100 100 100
100 100 100 100 100 100 100 100 100 100 100 100 100 100 100 100 100 100 100 100 100 100 100 100 100 100 100 100 100 100 100 100 100 100 100 100 100 100 100 100 100 100 100 100
100 100 100 100 100 100 100 100 100 100 100 100 100 100 100 100 100 100 100 100 100 100 100 100 100 100 100 100 100 100 100 100 100 100 100 100 100 100 100 100 100 100 100 100